| time (UTC) | temp F | wind direction | speed knots | gust knots | rain 1hr in | rain 24hr in | rain mn in | humidity % | barometer mb |
| 20260507152106 | 51 | 176 | 0.9 | 1.7 | 0.00 | 0.00 | 0.00 | 82 | 1016.5 |
| 20260507150604 | 51 | 172 | 0.9 | 1.7 | 0.00 | 0.00 | 0.00 | 82 | 1016.4 |
| 20260507145120 | 51 | 131 | 1.7 | 3.5 | 0.00 | 0.00 | 0.00 | 81 | 1016.3 |
| 20260507143558 | 51 | 114 | 1.7 | 5.2 | 0.00 | 0.00 | 0.00 | 81 | 1016.2 |
| 20260507142055 | 50 | 131 | 1.7 | 5.2 | 0.00 | 0.00 | 0.00 | 83 | 1016.2 |
| 20260507140551 | 50 | 90 | 1.7 | 6.1 | 0.00 | 0.00 | 0.00 | 83 | 1016.2 |
| 20260507135049 | 49 | 76 | 1.7 | 3.5 | 0.00 | 0.00 | 0.00 | 83 | 1016.1 |
| 20260507133547 | 49 | 73 | 1.7 | 5.2 | 0.00 | 0.00 | 0.00 | 83 | 1016.0 |
| 20260507132043 | 49 | 56 | 1.7 | 5.2 | 0.00 | 0.00 | 0.00 | 84 | 1015.8 |
| 20260507130559 | 48 | 51 | 1.7 | 5.2 | 0.00 | 0.00 | 0.00 | 84 | 1015.9 |
| 20260507125037 | 48 | 47 | 3.5 | 6.1 | 0.00 | 0.00 | 0.00 | 84 | 1015.8 |
| 20260507123534 | 48 | 48 | 3.5 | 7.0 | 0.00 | 0.00 | 0.00 | 85 | 1015.6 |
| 20260507122050 | 48 | 47 | 2.6 | 5.2 | 0.00 | 0.00 | 0.00 | 85 | 1015.6 |
| 20260507120527 | 47 | 50 | 3.5 | 7.0 | 0.00 | 0.00 | 0.00 | 86 | 1015.5 |
| 20260507115025 | 47 | 45 | 4.3 | 7.8 | 0.00 | 0.00 | 0.00 | 86 | 1015.5 |
| 20260507113522 | 47 | 43 | 2.6 | 5.2 | 0.00 | 0.00 | 0.00 | 86 | 1015.4 |
| 20260507112019 | 48 | 34 | 2.6 | 6.1 | 0.00 | 0.00 | 0.00 | 86 | 1015.2 |
| 20260507110516 | 48 | 41 | 4.3 | 8.7 | 0.00 | 0.00 | 0.00 | 86 | 1015.2 |
| 20260507105013 | 48 | 43 | 2.6 | 5.2 | 0.00 | 0.00 | 0.00 | 85 | 1015.1 |
| 20260507103509 | 48 | 56 | 2.6 | 6.1 | 0.00 | 0.00 | 0.00 | 84 | 1015.0 |
| 20260507102007 | 47 | 46 | 1.7 | 4.3 | 0.00 | 0.00 | 0.00 | 85 | 1014.9 |
| 20260507100504 | 47 | 61 | 2.6 | 8.7 | 0.00 | 0.00 | 0.00 | 85 | 1014.8 |
| 20260507094725 | 47 | 39 | 1.7 | 5.2 | 0.00 | 0.00 | 0.00 | 85 | 1014.5 |
| 20260507093222 | 47 | 36 | 1.7 | 5.2 | 0.00 | 0.00 | 0.00 | 85 | 1014.3 |
| 20260507091718 | 47 | 45 | 2.6 | 7.0 | 0.00 | 0.00 | 0.00 | 85 | 1014.1 |
| 20260507090215 | 47 | 60 | 1.7 | 6.1 | 0.00 | 0.00 | 0.00 | 85 | 1013.9 |
| 20260507084713 | 47 | 38 | 2.6 | 6.1 | 0.00 | 0.00 | 0.00 | 86 | 1013.8 |
| 20260507083210 | 47 | 48 | 3.5 | 7.8 | 0.00 | 0.00 | 0.00 | 86 | 1013.7 |
| 20260507081727 | 46 | 46 | 1.7 | 6.1 | 0.00 | 0.00 | 0.00 | 87 | 1013.5 |
| 20260507080204 | 46 | 41 | 3.5 | 7.0 | 0.00 | 0.00 | 0.00 | 87 | 1013.4 |
| 20260507075222 | 46 | 40 | 5.2 | 10.4 | 0.00 | 0.00 | 0.00 | 87 | 1013.2 |
| 20260507073659 | 46 | 45 | 2.6 | 6.1 | 0.00 | 0.00 | 0.00 | 87 | 1013.0 |
| 20260507072156 | 46 | 41 | 1.7 | 4.3 | 0.00 | 0.00 | 0.00 | 87 | 1012.9 |
| 20260507070652 | 46 | 45 | 3.5 | 9.6 | 0.00 | 0.00 | 0.00 | 88 | 1012.8 |
| 20260507065151 | 46 | 38 | 3.5 | 6.1 | 0.00 | 0.00 | 0.00 | 88 | 1012.8 |
| 20260507063647 | 46 | 42 | 2.6 | 6.1 | 0.00 | 0.00 | 0.00 | 88 | 1012.6 |
| 20260507062144 | 46 | 29 | 1.7 | 6.1 | 0.00 | 0.00 | 0.00 | 88 | 1012.4 |
| 20260507060641 | 46 | 33 | 1.7 | 3.5 | 0.00 | 0.00 | 0.00 | 87 | 1012.2 |
| 20260507055138 | 46 | 54 | 3.5 | 7.8 | 0.00 | 0.00 | 0.00 | 87 | 1012.1 |
| 20260507053655 | 46 | 55 | 2.6 | 5.2 | 0.00 | 0.00 | 0.00 | 87 | 1011.9 |
| 20260507052133 | 46 | 45 | 2.6 | 7.8 | 0.00 | 0.00 | 0.00 | 87 | 1011.8 |
| 20260507050628 | 46 | 41 | 3.5 | 7.8 | 0.00 | 0.00 | 0.00 | 88 | 1011.7 |
| 20260507045146 | 46 | 47 | 2.6 | 7.8 | 0.00 | 0.00 | 0.00 | 88 | 1011.6 |
| 20260507043623 | 46 | 34 | 1.7 | 5.2 | 0.00 | 0.00 | 0.00 | 88 | 1011.5 |
| 20260507042118 | 46 | 34 | 1.7 | 7.0 | 0.00 | 0.00 | 0.00 | 88 | 1011.3 |
| 20260507040636 | 46 | 32 | 3.5 | 8.7 | 0.00 | 0.00 | 0.00 | 88 | 1011.1 |
| 20260507035113 | 46 | 34 | 1.7 | 5.2 | 0.00 | 0.00 | 0.00 | 87 | 1011.3 |
| 20260507033610 | 46 | 21 | 1.7 | 4.3 | 0.00 | 0.00 | 0.00 | 87 | 1011.2 |
| 20260507032106 | 46 | 38 | 1.7 | 5.2 | 0.00 | 0.00 | 0.00 | 87 | 1011.0 |
| 20260507030603 | 46 | 32 | 2.6 | 6.1 | 0.00 | 0.00 | 0.00 | 87 | 1010.8 |
| 20260507025101 | 46 | 45 | 2.6 | 7.8 | 0.00 | 0.00 | 0.00 | 87 | 1010.9 |
| 20260507023617 | 46 | 41 | 1.7 | 4.3 | 0.00 | 0.00 | 0.00 | 87 | 1010.8 |
| 20260507022055 | 46 | 40 | 1.7 | 5.2 | 0.00 | 0.00 | 0.00 | 87 | 1010.6 |
| 20260507020552 | 46 | 39 | 1.7 | 6.1 | 0.00 | 0.00 | 0.00 | 87 | 1010.5 |
| 20260507015049 | 46 | 35 | 2.6 | 6.1 | 0.00 | 0.00 | 0.00 | 87 | 1010.6 |
| 20260507013545 | 46 | 47 | 3.5 | 6.1 | 0.00 | 0.00 | 0.00 | 87 | 1010.3 |
| 20260507012043 | 46 | 33 | 2.6 | 6.1 | 0.00 | 0.00 | 0.00 | 86 | 1010.4 |
| 20260507010539 | 47 | 45 | 4.3 | 9.6 | 0.00 | 0.00 | 0.00 | 86 | 1010.4 |
| 20260507005037 | 47 | 47 | 3.5 | 6.1 | 0.00 | 0.00 | 0.00 | 86 | 1010.4 |
| 20260507003534 | 49 | 50 | 4.3 | 9.6 | 0.00 | 0.00 | 0.00 | 86 | 1010.0 |
| 20260507002051 | 49 | 46 | 3.5 | 6.1 | 0.00 | 0.00 | 0.00 | 87 | 1009.8 |
| 20260507000528 | 50 | 32 | 1.7 | 6.1 | 0.00 | 0.00 | 0.00 | 87 | 1009.6 |
| 20260506235025 | 50 | 40 | 2.6 | 6.1 | 0.00 | 0.01 | 0.00 | 87 | 1009.6 |
| 20260506233542 | 51 | 48 | 2.6 | 6.1 | 0.00 | 0.02 | 0.00 | 87 | 1009.4 |
| 20260506232018 | 51 | 42 | 2.6 | 7.0 | 0.00 | 0.02 | 0.00 | 87 | 1009.4 |
| 20260506230516 | 51 | 37 | 1.7 | 5.2 | 0.00 | 0.02 | 0.00 | 87 | 1009.4 |
| 20260506225013 | 51 | 50 | 1.7 | 5.2 | 0.00 | 0.02 | 0.00 | 87 | 1009.4 |
| 20260506223509 | 51 | 51 | 2.6 | 6.1 | 0.00 | 0.02 | 0.00 | 86 | 1009.2 |
| 20260506222007 | 51 | 52 | 3.5 | 7.0 | 0.00 | 0.02 | 0.00 | 86 | 1009.1 |
| 20260506220524 | 51 | 59 | 3.5 | 6.1 | 0.00 | 0.02 | 0.00 | 87 | 1009.2 |
| 20260506214744 | 52 | 55 | 2.6 | 8.7 | 0.00 | 0.02 | 0.02 | 88 | 1009.3 |
| 20260506213241 | 52 | 53 | 0.9 | 1.7 | 0.00 | 0.02 | 0.02 | 87 | 1009.1 |
| 20260506211718 | 52 | 51 | 1.7 | 4.3 | 0.00 | 0.02 | 0.02 | 87 | 1009.0 |
| 20260506210215 | 52 | 55 | 1.7 | 7.8 | 0.00 | 0.02 | 0.02 | 87 | 1009.1 |
| 20260506204712 | 52 | 50 | 2.6 | 6.1 | 0.00 | 0.02 | 0.02 | 87 | 1008.8 |
| 20260506203209 | 52 | 51 | 2.6 | 6.1 | 0.00 | 0.02 | 0.02 | 87 | 1008.7 |
| 20260506201705 | 52 | 53 | 2.6 | 6.1 | 0.00 | 0.02 | 0.02 | 87 | 1008.7 |
| 20260506200203 | 53 | 47 | 2.6 | 6.1 | 0.00 | 0.02 | 0.02 | 87 | 1008.6 |
| 20260506195220 | 53 | 51 | 1.7 | 6.1 | 0.00 | 0.02 | 0.02 | 86 | 1008.6 |
| 20260506193718 | 53 | 51 | 1.7 | 5.2 | 0.00 | 0.02 | 0.02 | 86 | 1008.6 |
| 20260506192156 | 54 | 45 | 4.3 | 7.8 | 0.00 | 0.02 | 0.02 | 87 | 1008.4 |
| 20260506190652 | 54 | 54 | 3.5 | 6.1 | 0.00 | 0.02 | 0.02 | 87 | 1008.3 |
| 20260506185149 | 54 | 54 | 1.7 | 6.1 | 0.00 | 0.02 | 0.02 | 87 | 1008.0 |
| 20260506183646 | 55 | 52 | 1.7 | 5.2 | 0.00 | 0.02 | 0.02 | 87 | 1007.7 |
| 20260506182143 | 55 | 62 | 2.6 | 5.2 | 0.00 | 0.02 | 0.02 | 86 | 1007.5 |
| 20260506180640 | 55 | 53 | 3.5 | 7.8 | 0.00 | 0.02 | 0.02 | 86 | 1007.4 |
| 20260506175156 | 55 | 49 | 1.7 | 6.1 | 0.00 | 0.02 | 0.02 | 86 | 1007.4 |
| 20260506173634 | 55 | 51 | 2.6 | 5.2 | 0.00 | 0.02 | 0.02 | 86 | 1007.5 |
| 20260506172130 | 56 | 53 | 1.7 | 6.1 | 0.00 | 0.02 | 0.02 | 87 | 1007.3 |
| 20260506170628 | 56 | 51 | 2.6 | 6.1 | 0.00 | 0.02 | 0.02 | 87 | 1007.2 |
| 20260506165144 | 56 | 55 | 2.6 | 6.1 | 0.00 | 0.02 | 0.02 | 87 | 1007.1 |
| 20260506163622 | 56 | 55 | 3.5 | 6.1 | 0.00 | 0.02 | 0.02 | 86 | 1007.1 |
| 20260506162118 | 56 | 68 | 1.7 | 6.1 | 0.00 | 0.02 | 0.02 | 87 | 1007.1 |
| 20260506160616 | 56 | 57 | 2.6 | 7.8 | 0.00 | 0.02 | 0.02 | 87 | 1007.2 |
| 20260506155112 | 56 | 54 | 2.6 | 7.0 | 0.00 | 0.02 | 0.02 | 88 | 1007.1 |
| 20260506153609 | 56 | 53 | 3.5 | 6.1 | 0.00 | 0.02 | 0.02 | 88 | 1007.4 |